Volver al catálogo

CZ-6A DEB

ActivoSSO
NORAD 56625·DEBRIS·🇨🇳 China

Lanzado Nov 11, 2022 desde Taiyuan Satellite Launch Center

Loading…

Próximos Pases (próximas 24 horas)

TLE

ActualizadoSource: Space-Track

Época: Sep 14, 2026, 05:55 UTC

1 56625U 22151AEZ 26257.24701552  .00000521  00000-0  34789-3 0  9995
2 56625  98.9033 245.0797 0081251 133.5636 227.2315 14.03775408173581

Sigue CZ-6A DEB en tiempo real con AllMySat

Download on the App Store